Hourly Weather Barrancas

Today, 28 October, Wednesday

Time Temperature Precipitation Wind Pressure Humidity
00:00 +24°C° 0 mm 1 mps 718 mmHg 89%
01:00 +23°C° 0 mm 1 mps 718 mmHg 89%
02:00 +23°C° 0 mm 1 mps 718 mmHg 89%
03:00 +23°C° 0 mm 1 mps 718 mmHg 89%
04:00 +23°C° 0 mm 1 mps 718 mmHg 88%
05:00 +24°C° 0 mm 1 mps 718 mmHg 86%
06:00 +25°C° 0 mm 1 mps 719 mmHg 84%
07:00 +25°C° 0 mm 1 mps 719 mmHg 82%
08:00 +27°C° 0.1 mm 1 mps 720 mmHg 76%
09:00 +29°C° 0.1 mm 1 mps 720 mmHg 69%
10:00 +29°C° 0.1 mm 0 mps 720 mmHg 63%
11:00 +31°C° 0.3 mm 1 mps 720 mmHg 62%
12:00 +31°C° 0.3 mm 1 mps 719 mmHg 62%
13:00 +32°C° 0.3 mm 1 mps 718 mmHg 61%
14:00 +31°C° 0.5 mm 2 mps 717 mmHg 66%
15:00 +30°C° 0.5 mm 2 mps 717 mmHg 71%
16:00 +29°C° 0.5 mm 3 mps 716 mmHg 76%
17:00 +28°C° 0.3 mm 2 mps 717 mmHg 79%
18:00 +27°C° 0.3 mm 2 mps 717 mmHg 83%
19:00 +25°C° 0.3 mm 2 mps 718 mmHg 86%
20:00 +25°C° 0 mm 2 mps 718 mmHg 88%
21:00 +24°C° 0 mm 2 mps 719 mmHg 89%
22:00 +24°C° 0 mm 2 mps 719 mmHg 91%
23:00 +24°C° 0 mm 1 mps 719 mmHg 91%

Tomorrow, 29 October, Thursday

Time Temperature Precipitation Wind Pressure Humidity
00:00 +23°C° 0 mm 1 mps 718 mmHg 91%
01:00 +23°C° 0 mm 1 mps 718 mmHg 92%
02:00 +23°C° 0 mm 1 mps 718 mmHg 92%
03:00 +23°C° 0 mm 1 mps 718 mmHg 92%
04:00 +23°C° 0 mm 1 mps 717 mmHg 92%
05:00 +24°C° 0 mm 1 mps 718 mmHg 90%
06:00 +24°C° 0 mm 1 mps 719 mmHg 88%
07:00 +25°C° 0 mm 1 mps 719 mmHg 86%
08:00 +27°C° 0.2 mm 1 mps 720 mmHg 79%
09:00 +29°C° 0.2 mm 1 mps 720 mmHg 72%
10:00 +29°C° 0.2 mm 0 mps 721 mmHg 65%
11:00 +30°C° 0.8 mm 1 mps 720 mmHg 67%
12:00 +30°C° 0.8 mm 1 mps 719 mmHg 69%
13:00 +30°C° 0.8 mm 1 mps 718 mmHg 71%
14:00 +29°C° 0.7 mm 1 mps 718 mmHg 74%
15:00 +29°C° 0.7 mm 1 mps 718 mmHg 77%
16:00 +28°C° 0.7 mm 1 mps 717 mmHg 80%
17:00 +27°C° 0.1 mm 1 mps 718 mmHg 83%
18:00 +26°C° 0.1 mm 1 mps 718 mmHg 86%
19:00 +25°C° 0.1 mm 1 mps 719 mmHg 89%
20:00 +25°C° 0.3 mm 1 mps 719 mmHg 90%
21:00 +24°C° 0.3 mm 1 mps 719 mmHg 91%
22:00 +24°C° 0.3 mm 1 mps 719 mmHg 92%
23:00 +24°C° 0 mm 1 mps 719 mmHg 92%

Day after tomorrow, 30 October, Friday

Time Temperature Precipitation Wind Pressure Humidity
00:00 +24°C° 0 mm 1 mps 719 mmHg 92%
01:00 +24°C° 0 mm 1 mps 718 mmHg 92%
02:00 +23°C° 0 mm 1 mps 718 mmHg 92%
03:00 +23°C° 0 mm 1 mps 719 mmHg 92%
04:00 +23°C° 0 mm 1 mps 719 mmHg 91%
05:00 +24°C° 0 mm 1 mps 719 mmHg 89%
06:00 +25°C° 0 mm 1 mps 720 mmHg 87%
07:00 +25°C° 0 mm 1 mps 720 mmHg 84%
08:00 +27°C° 0 mm 1 mps 720 mmHg 77%
09:00 +29°C° 0 mm 1 mps 721 mmHg 71%
10:00 +30°C° 0 mm 1 mps 721 mmHg 64%
11:00 +30°C° 0.8 mm 1 mps 720 mmHg 67%
12:00 +30°C° 0.8 mm 1 mps 719 mmHg 71%
13:00 +30°C° 0.8 mm 1 mps 718 mmHg 74%
14:00 +29°C° 0.9 mm 1 mps 718 mmHg 76%
15:00 +29°C° 0.9 mm 1 mps 718 mmHg 77%
16:00 +29°C° 0.9 mm 2 mps 718 mmHg 78%
17:00 +27°C° 0.6 mm 1 mps 718 mmHg 81%
18:00 +26°C° 0.6 mm 1 mps 719 mmHg 84%
19:00 +25°C° 0.6 mm 1 mps 719 mmHg 88%
20:00 +24°C° 0.1 mm 1 mps 719 mmHg 89%
21:00 +24°C° 0.1 mm 1 mps 720 mmHg 90%
22:00 +24°C° 0.1 mm 1 mps 720 mmHg 92%
23:00 +24°C° 0 mm 1 mps 720 mmHg 92%

31 October, Saturday

Time Temperature Precipitation Wind Pressure Humidity
00:00 +24°C° 0 mm 1 mps 719 mmHg 93%
01:00 +23°C° 0 mm 1 mps 719 mmHg 93%
02:00 +23°C° 0.1 mm 1 mps 719 mmHg 93%
03:00 +23°C° 0.1 mm 1 mps 719 mmHg 93%
04:00 +23°C° 0.1 mm 1 mps 719 mmHg 92%
05:00 +24°C° 0.2 mm 1 mps 720 mmHg 92%
06:00 +24°C° 0.2 mm 1 mps 720 mmHg 92%
07:00 +24°C° 0.2 mm 1 mps 720 mmHg 92%
08:00 +25°C° 0.1 mm 1 mps 721 mmHg 89%
09:00 +25°C° 0.1 mm 1 mps 721 mmHg 86%
10:00 +24°C° 0.1 mm 0 mps 721 mmHg 83%
11:00 +27°C° 0.1 mm 1 mps 720 mmHg 80%
12:00 +27°C° 0.1 mm 1 mps 720 mmHg 77%
13:00 +28°C° 0.1 mm 1 mps 719 mmHg 74%
14:00 +27°C° 0 mm 1 mps 719 mmHg 77%
15:00 +26°C° 0 mm 1 mps 718 mmHg 79%
16:00 +26°C° 0 mm 1 mps 718 mmHg 81%
17:00 +25°C° 0 mm 1 mps 718 mmHg 82%
18:00 +25°C° 0 mm 1 mps 719 mmHg 83%
19:00 +24°C° 0 mm 1 mps 719 mmHg 84%
20:00 +24°C° 0 mm 1 mps 720 mmHg 84%
21:00 +24°C° 0 mm 1 mps 720 mmHg 84%
22:00 +24°C° 0 mm 1 mps 720 mmHg 84%
23:00 +23°C° 0 mm 1 mps 720 mmHg 83%

1 November, Sunday

Time Temperature Precipitation Wind Pressure Humidity
00:00 +23°C° 0 mm 1 mps 719 mmHg 83%
01:00 +23°C° 0 mm 1 mps 719 mmHg 83%
02:00 +23°C° 0 mm 1 mps 719 mmHg 83%
03:00 +23°C° 0 mm 1 mps 719 mmHg 82%
04:00 +23°C° 0 mm 1 mps 719 mmHg 82%
05:00 +24°C° 0 mm 1 mps 719 mmHg 81%
06:00 +24°C° 0 mm 1 mps 720 mmHg 80%
07:00 +25°C° 0 mm 1 mps 720 mmHg 79%
08:00 +27°C° 0.1 mm 1 mps 720 mmHg 73%
09:00 +29°C° 0.1 mm 1 mps 721 mmHg 67%
10:00 +30°C° 0.1 mm 1 mps 721 mmHg 62%
11:00 +28°C° 0.7 mm 0 mps 720 mmHg 63%
12:00 +29°C° 0.7 mm 0 mps 719 mmHg 65%
13:00 +29°C° 0.7 mm 0 mps 719 mmHg 67%
14:00 +30°C° 0.8 mm 1 mps 718 mmHg 71%
15:00 +29°C° 0.8 mm 1 mps 718 mmHg 75%
16:00 +28°C° 0.8 mm 1 mps 718 mmHg 79%
17:00 +27°C° 0.4 mm 1 mps 718 mmHg 82%
18:00 +26°C° 0.4 mm 1 mps 718 mmHg 84%
19:00 +25°C° 0.4 mm 1 mps 719 mmHg 87%
20:00 +25°C° 0.5 mm 1 mps 719 mmHg 88%
21:00 +24°C° 0.5 mm 1 mps 719 mmHg 89%
22:00 +24°C° 0.5 mm 1 mps 719 mmHg 90%
23:00 +24°C° 0.8 mm 1 mps 719 mmHg 91%

2 November, Monday

Time Temperature Precipitation Wind Pressure Humidity
00:00 +24°C° 0.8 mm 1 mps 719 mmHg 93%
01:00 +24°C° 0.8 mm 1 mps 719 mmHg 94%
02:00 +23°C° 0.4 mm 1 mps 718 mmHg 94%
03:00 +23°C° 0.4 mm 1 mps 718 mmHg 93%
04:00 +23°C° 0.4 mm 1 mps 718 mmHg 93%
05:00 +23°C° 0.6 mm 1 mps 719 mmHg 93%
06:00 +24°C° 0.6 mm 1 mps 719 mmHg 92%
07:00 +24°C° 0.6 mm 1 mps 720 mmHg 91%
08:00 +24°C° 0.4 mm 1 mps 720 mmHg 91%
09:00 +25°C° 0.4 mm 1 mps 720 mmHg 91%
10:00 +25°C° 0.4 mm 1 mps 720 mmHg 90%
11:00 +26°C° 0.9 mm 1 mps 719 mmHg 88%
12:00 +26°C° 0.9 mm 1 mps 719 mmHg 87%
13:00 +27°C° 0.9 mm 1 mps 718 mmHg 85%
14:00 +26°C° 0.2 mm 1 mps 718 mmHg 86%
15:00 +26°C° 0.2 mm 1 mps 717 mmHg 87%
16:00 +24°C° 0.2 mm 0 mps 717 mmHg 88%
17:00 +23°C° 0 mm 0 mps 717 mmHg 89%
18:00 +23°C° 0 mm 0 mps 718 mmHg 89%
19:00 +22°C° 0 mm 0 mps 718 mmHg 90%
20:00 +24°C° 0.1 mm 1 mps 718 mmHg 90%
21:00 +24°C° 0.1 mm 1 mps 719 mmHg 90%
22:00 +24°C° 0.1 mm 1 mps 719 mmHg 90%
23:00 +24°C° 0.1 mm 1 mps 719 mmHg 90%
Show more